KPSPKSBD

Guest
Details From KPSP - Palm Springs Intl
To KSBD - San Bernardino Intl
Flight Number -
Tags generated
Created
Modified
Stats Distance 40 nm / 74 km
Max Altitude 4,800 ft / 1,463 m
Waypoints 3
Social Downloads 1
Likes 0
Share VATSIM

Download

Looking for another format? Having issues loading an existing format? Contact us
Advertisement - Login to hide

Notes

Basic altitude profile: - Ascent Rate: 1500ft/min - Ascent Speed: 220kts - Cruise Altitude: 12000ft - Cruise Speed: 240kts - Descent Rate: 1500ft/min - Descent Speed: 220kts Options: - Use NATs: yes - Use PACOTS: yes - Use low airways: yes - Use high airways: yes

Route

KPSP DEWAY KSBD

ID Type Via Altitude Latitude Longitude Leg Dist Tot Dist Heading (true) Name
O KPSP APT - 0 ft / 0 m 33.82968˚ -116.50622˚ - 0 nm - Palm Springs Intl
DEWAY FIX - 4,800 ft / 1,463 m 33.94867˚ -116.73998˚ 13 nm 13 nm 302° / 301° -
O KSBD APT - 0 ft / 0 m 34.09534˚ -117.23487˚ 26 nm 39 nm 290° / 290° San Bernardino Intl

Altitude Profile

Advertisement - Login to hide

KPSP

Details ICAO KPSP (PSP)
Name Palm Springs Intl
Region United States
Timezone America/Los_Angeles (UTC-7.0)
Stats Elevation 477 ft / 145 m (AMSL)
Location 33.829677° -116.506218°
Runways 2
Magnetic Variation 11.542° E

METAR

KPSP 210353Z 32016G25KT 10SM CLR 26/11 A2970 RMK AO2 SLP054 T02610106

Decode

TAF

TAF KPSP 202320Z 2100/2124 33012G22KT P6SM SKC FM210700 VRB06KT P6SM SKC FM212200 31012G20KT P6SM SKC

Decode

Departure Runways

ID Width Length Bearing (true) Bearing (mag) Surface Threshold Offset Overrun Length
13L 75 ft / 23 m 4,958 ft / 1,511 m 143.52° 131.98° Asphalt 0 ft / 0 m 151 ft / 46 m
13R 151 ft / 46 m 10,012 ft / 3,052 m 143.52° 131.98° Asphalt 2,999 ft / 914 m 200 ft / 61 m
31L 151 ft / 46 m 10,012 ft / 3,052 m 323.53° 311.99° Asphalt 1,499 ft / 457 m 200 ft / 61 m
31R 75 ft / 23 m 4,958 ft / 1,511 m 323.53° 311.99° Asphalt 0 ft / 0 m 151 ft / 46 m

KSBD

Details ICAO KSBD (SBD)
Name San Bernardino Intl
Region United States
Timezone America/Los_Angeles (UTC-7.0)
Stats Elevation 1,157 ft / 353 m (AMSL)
Location 34.095343° -117.234869°
Runways 1
Magnetic Variation 11.753° E

METAR

KSBD 210350Z 25008KT 6SM HZ OVC100 17/12 A2988 RMK LAST

Decode

TAF

TAF KSBD 202320Z 2100/2124 25008KT 5SM HZ SCT030 FM210400 25007KT P6SM SCT025 FM210600 VRB05KT P6SM OVC015 FM211400 VRB04KT 4SM HZ OVC020 FM212200 25008KT 4SM HZ SCT035

Decode

Destination Runways

ID Width Length Bearing (true) Bearing (mag) Surface Threshold Offset Overrun Length
06 180 ft / 55 m 9,963 ft / 3,037 m 70.26° 58.51° Asphalt 0 ft / 0 m 1,000 ft / 305 m
24 180 ft / 55 m 9,963 ft / 3,037 m 250.27° 238.52° Asphalt 0 ft / 0 m 1,000 ft / 305 m

Approach Navaids

Runway Type Ident Frequency Range Bearing (true) Bearing (mag) Slope Elevation
06 Localiser ISBD 109.30 MHz 18 nm / 33 km 70.31° 58.56° - 1,086 ft / 331 m (AMSL)
06 Glidescope ISBD 109.30 MHz 10 nm / 19 km 70.27° 58.51° 3.00° 1,157 ft / 353 m (AMSL)